METOP-B 1 38771U 12049A 25347.63770061 .00000202 00000+0 11229-3 0 9994 2 38771 98.6800 37.5813 0002951 142.1848 217.9538 14.21408778686907 SARAL 1 39086U 13009A 25347.63544368 .00000186 00000+0 84372-4 0 9991 2 39086 98.5503 171.5542 0002885 107.0501 253.0999 14.32757389669030 METOP-C 1 43689U 18087A 25347.66636812 .00000212 00000+0 11678-3 0 9993 2 43689 98.6930 45.4220 0001205 37.7199 322.4063 14.21484873368478 OTB-3-GAZELLE 1 54023U 22127A 25347.52806022 .00000189 00000+0 69737-4 0 9997 2 54023 98.3821 337.2039 0013818 33.2163 326.9892 14.42606220167597 EOS-6 (OCEANSAT-3) 1 54361U 22158A 25347.70479293 .00000571 00000+0 16885-3 0 9992 2 54361 98.3549 83.4128 0001618 138.4592 221.6724 14.47034172161019 KINEIS-1B 1 60079U 24114A 25347.65398513 .00001551 00000+0 21112-3 0 9996 2 60079 97.9989 7.6348 0002296 12.3160 347.8108 14.80166345 79954 KINEIS-1C 1 60081U 24114C 25347.62013560 .00001544 00000+0 21021-3 0 9993 2 60081 98.0005 7.4078 0002360 81.7362 278.4118 14.80171768 79924 KINEIS-1D 1 60082U 24114D 25347.64756190 .00001178 00000+0 17877-3 0 9996 2 60082 98.0014 4.7254 0002715 80.9958 279.1558 14.75932443 79753 KINEIS-1E 1 60083U 24114E 25347.63711378 .00001485 00000+0 20247-3 0 9991 2 60083 97.9992 7.5168 0001578 50.8963 309.2389 14.80161020 79938 KINEIS-1A 1 60084U 24114F 25347.67104788 .00001492 00000+0 20353-3 0 9993 2 60084 97.9999 7.6656 0003815 30.7888 329.3547 14.80147145 79940 KINEIS-3C 1 61220U 24172A 25347.19896966 .00004190 00000+0 67014-3 0 9996 2 61220 98.0276 74.2739 0001884 47.8333 312.3034 14.72330480 65702 KINEIS-3D 1 61221U 24172B 25347.53202004 .00004312 00000+0 68935-3 0 9998 2 61221 98.0267 74.6182 0001861 58.2133 301.9256 14.72333246 66038 KINEIS-3E 1 61222U 24172C 25347.51479162 .00004178 00000+0 66816-3 0 9994 2 61222 98.0264 74.6068 0001262 81.8127 278.3223 14.72331637 66032 KINEIS-3A 1 61223U 24172D 25347.56625838 .00003386 00000+0 54227-3 0 9996 2 61223 98.0261 74.7322 0001485 354.6620 5.4571 14.72393085 65466 KINEIS-3B 1 61224U 24172E 25347.48123134 .00004176 00000+0 66685-3 0 9999 2 61224 98.0261 74.6866 0001260 317.4709 42.6401 14.72395759 66023 KINEIS-5C 1 62081U 24219A 25346.91348439 -.00000111 00000+0 -97545-5 0 9995 2 62081 97.9873 144.8904 0000683 207.5479 152.5693 14.72277460 56342 KINEIS-5D 1 62082U 24219B 25346.87926235 .00001502 00000+0 24520-3 0 9991 2 62082 97.9833 144.9246 0001332 195.7587 164.3579 14.72332342 56344 KINEIS-5E 1 62083U 24219C 25344.65336429 .00001446 00000+0 23624-3 0 9997 2 62083 97.9860 142.8550 0000883 112.9640 247.1661 14.72366111 56029 KINEIS-5A 1 62084U 24219D 25345.02721513 .00001353 00000+0 22144-3 0 9995 2 62084 97.9859 143.3152 0002451 154.0400 206.0931 14.72377086 56089 KINEIS-5B 1 62085U 24219E 25347.62390153 .00002861 00000+0 40691-3 0 9998 2 62085 97.9845 147.8328 0002700 129.1972 230.9479 14.77650864 56595 KINEIS-2C 1 62929U 25028B 25347.68787405 .00002244 00000+0 36303-3 0 9990 2 62929 98.0230 38.9592 0000900 179.8881 180.2326 14.72282276 45315 KINEIS-2D 1 62930U 25028C 25347.62784890 .00002958 00000+0 44767-3 0 9996 2 62930 97.9560 38.4846 0004551 86.6983 273.4746 14.74947978 45356 KINEIS-2E 1 62931U 25028D 25347.63390565 .00002461 00000+0 36151-3 0 9997 2 62931 97.9226 38.0416 0001752 83.1630 276.9779 14.76376083 45399 KINEIS-2A 1 62932U 25028E 25347.63305901 .00002122 00000+0 34158-3 0 9997 2 62932 98.0113 39.0676 0003254 53.7695 306.3813 14.72547918 45300 KINEIS-2B 1 62934U 25028G 25347.57141772 .00002237 00000+0 35759-3 0 9991 2 62934 97.9940 38.6200 0004173 44.0139 316.1400 14.72806652 45330 KINEIS-4E 1 63300U 25056A 25347.64782394 .00003366 00000+0 53959-3 0 9995 2 63300 98.0004 110.3453 0001670 125.8899 234.2464 14.72355555 39827 KINEIS-4C 1 63301U 25056B 25347.65920872 .00003311 00000+0 53272-3 0 9990 2 63301 98.0004 110.4861 0001291 167.0510 193.0731 14.72211091 39835 KINEIS-4D 1 63302U 25056C 25346.56919676 .00004250 00000+0 67954-3 0 9995 2 63302 98.0150 109.4450 0005635 153.9871 206.1621 14.72319447 39670 KINEIS-4A 1 63303U 25056D 25347.63026571 .00003414 00000+0 54797-3 0 9990 2 63303 98.0006 110.3691 0003075 149.5160 210.6227 14.72289335 39828 KINEIS-4B 1 63304U 25056E 25347.61349618 .00003229 00000+0 51949-3 0 9999 2 63304 98.0007 110.3933 0003538 130.9687 229.1827 14.72223194 39812